[[{"header":{"parameterUnit":"m.s-1","parameterCategory":1,"la1":30.2991,"la2":30.254,"lo1":-89.0895,"lo2":-89.0444,"dy":0.0017,"dx":0.0017,"nx":28,"ny":28,"refTime":"2025-08-25T03:00:00:Z","depth":0,"parameterNumber":2,"parameterNumberName":"U-component_of_WINDS"},"data":[0,0,0,0,0,0,0,0,0,0,0,0,0,0,0,0,0,0,0,0,0,0,0,0,0,0,0,0,0,0,0,0,0,0,0,0,0,0,0,0,0,0,0,0,0,0,0,0,0,0,0,0,0,0,0,0,0,0,2.4936,2.4938,0,2.5141,2.5143,2.5146,2.5157,2.5154,2.5152,2.515,2.5364,2.5371,2.5379,0,0,0,0,0,0,0,0,0,0,0,0,0,2.4556,2.4563,2.4936,2.4938,2.4941,2.5141,2.5143,2.5146,2.5157,2.5154,2.5151,2.5149,2.5361,2.537,2.538,0,0,0,0,0,0,0,0,0,0,0,0,0,2.4737,2.4565,2.4935,2.497,2.4975,2.514,2.5144,2.5147,2.5158,2.5154,2.5151,2.5147,2.5358,2.5369,2.5381,2.5526,0,0,2.5417,2.5423,0,0,0,0,0,0,0,0,2.4727,2.4751,2.4963,2.4968,2.4974,2.512,2.5088,2.5274,2.5159,2.5089,2.515,2.5146,2.5286,2.5303,2.535,2.5536,2.5545,2.5419,2.5426,2.5431,2.5434,0,0,0,0,0,0,0,2.4714,2.4742,2.5017,2.4966,2.4973,2.4977,2.4998,2.5123,2.5205,2.5095,2.5096,2.512,2.5288,2.5338,2.5355,2.5548,2.5418,2.5429,2.5436,2.5441,2.5863,2.5867,0,0,0,0,0,0,2.4694,2.4732,2.501,2.5023,2.4839,2.4986,2.5011,2.5077,2.5203,2.5219,2.5123,2.5119,2.532,2.5341,2.5362,2.554,2.5431,2.5442,2.5449,2.5859,2.5864,2.5869,0,0,0,0,0,0,2.4686,2.4719,2.5002,2.4878,2.4914,2.4997,2.5071,2.5083,2.5133,2.5225,2.5239,2.5159,2.5318,2.5346,2.5485,2.5547,2.5447,2.5458,2.5854,2.5861,2.5866,2.5896,0,0,0,0,0,0,2.4675,2.4716,2.4771,2.4879,2.4921,2.5121,2.5074,2.5089,2.5153,2.515,2.5262,2.5277,2.5317,2.5467,2.5497,2.5562,2.5467,2.5849,2.5857,2.5865,2.589,2.5903,2.5913,0,0,0,0,0,2.4662,2.4773,2.4774,2.4808,2.4991,2.5124,2.5148,2.519,2.5158,2.5214,2.5273,2.5274,2.5536,2.5481,2.5515,2.5585,2.5845,2.5855,2.5864,2.5885,2.59,2.5913,0,0,0,0,0,0,2.4672,2.4787,2.479,2.4939,2.5022,2.5126,2.5198,2.5205,2.53,2.5294,2.5343,2.5369,2.5506,2.556,2.5497,2.5731,2.5687,2.5703,2.5691,2.5707,2.5718,2.5703,2.5477,0,0,0,0,0,2.4691,2.4788,2.4884,2.5006,2.5047,2.5116,2.5175,2.52,2.5288,2.5324,2.5393,2.5479,2.558,2.5647,2.5745,2.5897,2.5922,2.5962,2.5974,2.5983,2.5997,2.6081,2.61,2.5899,2.5899,2.5899,0,0,2.4733,2.4808,2.4866,2.501,2.5077,2.5177,2.5145,2.5253,2.5328,2.534,2.5476,2.5529,2.5629,2.5775,2.5843,2.5823,2.6057,2.5995,2.6001,2.601,2.6092,2.6111,2.6128,2.5905,2.5904,2.5903,0,0,2.4859,2.4925,2.5034,2.5101,2.5202,2.5247,2.5273,2.5376,2.5412,2.5548,2.5559,2.565,2.5824,2.5894,2.5952,2.6104,2.6108,2.6135,2.6196,2.6278,2.6294,2.6308,2.6362,2.6381,2.6148,2.6148,2.6148,0,2.4898,2.5049,2.509,2.5197,2.526,2.5274,2.5385,2.5448,2.5577,2.5621,2.5597,2.5815,2.5883,2.6045,2.6082,2.6129,2.6161,2.6123,2.6288,2.6302,2.6316,2.6369,2.6389,2.6151,2.6151,2.615,2.615,0,2.5092,2.5196,2.5272,2.5394,2.5465,2.5574,2.5632,2.57,2.5718,2.5765,2.5904,2.5986,2.6101,2.6141,2.6161,2.6307,2.6292,2.6277,2.6234,2.6337,2.6387,2.6408,2.6155,2.6154,2.6153,2.6152,0,0,2.5232,2.5374,2.5401,2.5456,2.5568,2.565,2.5759,2.587,2.5927,2.6015,2.6108,2.6254,2.6241,2.6308,2.6336,2.6407,2.6522,2.6384,2.6387,2.6407,2.6687,2.6697,2.672,2.6525,2.6529,2.6532,2.6679,0,2.5371,2.5564,2.5603,2.5771,2.5868,2.5882,2.5977,2.6056,2.6103,2.6193,2.6245,2.6348,2.6323,2.6363,2.6434,2.6493,2.6579,2.6483,2.6613,2.6617,2.6587,2.6746,2.6758,2.6892,2.6698,2.6702,2.6704,0,2.5559,2.565,2.5827,2.5924,2.5967,2.6051,2.6156,2.6241,2.6331,2.636,2.6433,2.6453,2.6568,2.6518,2.6677,2.6611,2.6667,2.6703,2.671,2.6724,2.6667,2.6764,2.6936,2.6956,2.6735,2.6733,2.6731,0,2.5644,2.581,2.5937,2.5984,2.6101,2.616,2.6212,2.6299,2.6363,2.6454,2.6497,2.6601,2.6658,2.6739,2.6787,2.6746,2.6942,2.6897,2.697,2.6969,2.7011,2.7008,2.7194,2.7046,2.7046,2.7045,2.7045,0,2.5795,2.5903,2.5976,2.6055,2.6175,2.622,2.6339,2.639,2.6467,2.6556,2.6575,2.6658,2.6716,2.6808,2.6846,2.6972,2.6998,2.7025,2.7034,2.7023,2.702,2.7061,2.7053,2.7051,2.705,2.7049,2.7048,0,2.591,2.5964,2.6103,2.6202,2.6229,2.6314,2.64,2.6476,2.6522,2.6635,2.6664,2.6737,2.6846,2.6901,2.7038,2.7063,2.7205,2.7208,2.7174,2.7177,2.7247,2.724,2.7467,2.7498,2.7329,2.7331,2.7332,0,2.6004,2.6087,2.6194,2.6254,2.6306,2.6404,2.6468,2.6515,2.6582,2.669,2.6754,2.6863,2.6953,2.7126,2.7193,2.7297,2.7303,2.7375,2.7319,2.7305,2.7304,2.7298,2.7307,2.7385,2.7386,2.7388,2.7389,0,2.6164,2.6186,2.6278,2.6379,2.6455,2.6538,2.6619,2.6667,2.6727,2.6802,2.6912,2.6981,2.7119,2.7228,2.7336,2.7391,2.7401,2.7406,2.7428,2.7419,2.7395,2.7409,2.7201,2.7401,2.7399,2.7399,2.7398,2.7398,2.6272,2.6345,2.6432,2.6533,2.6599,2.6674,2.6751,2.6806,2.6898,2.7013,2.7035,2.7152,2.724,2.7386,2.7444,2.7537,2.7521,2.7554,2.7562,2.757,2.7573,2.738,2.7557,2.7556,2.7556,2.7556,2.7556,0,2.6433,2.6488,2.6581,2.6693,2.6773,2.6773,2.6862,2.693,2.7032,2.7112,2.7199,2.7326,2.7431,2.7505,2.7611,2.7672,2.7679,2.7698,2.7694,2.7707,2.7581,2.755,2.769,2.769,2.769,2.769,2.769,2.769,2.6526,2.6651,2.6682,2.684,2.6895,2.7009,2.706,2.713,2.7193,2.7333,2.742,2.7466,2.7544,2.7656,2.7753,2.7772,2.781,2.783,2.7849,2.773,2.7716,2.7702,2.7674,2.7838,2.7838,2.7968,2.7969,2.797]},{"header":{"parameterUnit":"m.s-1","parameterCategory":1,"la1":30.2991,"la2":30.254,"lo1":-89.0895,"lo2":-89.0444,"dy":0.0017,"dx":0.0017,"nx":28,"ny":28,"refTime":"2025-08-25T03:00:00:Z","depth":0,"parameterNumber":3,"parameterNumberName":"V-component_of_WINDS"},"data":[0,0,0,0,0,0,0,0,0,0,0,0,0,0,0,0,0,0,0,0,0,0,0,0,0,0,0,0,0,0,0,0,0,0,0,0,0,0,0,0,0,0,0,0,0,0,0,0,0,0,0,0,0,0,0,0,0,0,-1.1279,-1.1279,0,-1.1275,-1.1275,-1.1275,-1.1304,-1.1305,-1.1306,-1.1307,-1.13,-1.13,-1.1299,0,0,0,0,0,0,0,0,0,0,0,0,0,-1.1311,-1.131,-1.1279,-1.1279,-1.1279,-1.1275,-1.1275,-1.1275,-1.1304,-1.1305,-1.1306,-1.1307,-1.1301,-1.13,-1.1298,0,0,0,0,0,0,0,0,0,0,0,0,0,-1.1301,-1.131,-1.1279,-1.1293,-1.1294,-1.1275,-1.1275,-1.1275,-1.1304,-1.1305,-1.1307,-1.1308,-1.1301,-1.13,-1.1298,-1.1264,0,0,-1.1294,-1.1293,0,0,0,0,0,0,0,0,-1.1301,-1.13,-1.1291,-1.1292,-1.1293,-1.1292,-1.1284,-1.1271,-1.1304,-1.13,-1.1307,-1.1308,-1.1296,-1.1295,-1.1292,-1.1264,-1.1264,-1.1294,-1.1293,-1.1292,-1.1292,0,0,0,0,0,0,0,-1.1302,-1.13,-1.1277,-1.1291,-1.1292,-1.1299,-1.1299,-1.1281,-1.1291,-1.1301,-1.1303,-1.1302,-1.1297,-1.1293,-1.1292,-1.1263,-1.1294,-1.1293,-1.1292,-1.1291,-1.1208,-1.1206,0,0,0,0,0,0,-1.1301,-1.13,-1.1277,-1.1277,-1.1301,-1.1298,-1.1298,-1.1291,-1.1291,-1.1293,-1.1301,-1.1304,-1.1295,-1.1293,-1.1292,-1.1251,-1.1292,-1.1291,-1.129,-1.1209,-1.1207,-1.1206,0,0,0,0,0,0,-1.1302,-1.1299,-1.1277,-1.1289,-1.1287,-1.1296,-1.1288,-1.129,-1.1286,-1.1292,-1.1293,-1.1295,-1.1296,-1.1294,-1.1271,-1.1251,-1.129,-1.1289,-1.1211,-1.1209,-1.1207,-1.117,0,0,0,0,0,0,-1.1302,-1.1299,-1.1286,-1.1289,-1.1286,-1.1257,-1.1287,-1.1289,-1.1284,-1.1287,-1.1287,-1.1288,-1.1297,-1.1273,-1.127,-1.125,-1.1288,-1.1212,-1.121,-1.1207,-1.1173,-1.1167,-1.1162,0,0,0,0,0,-1.1303,-1.1275,-1.1285,-1.1282,-1.1271,-1.1256,-1.1254,-1.1266,-1.1282,-1.1269,-1.1273,-1.1288,-1.1255,-1.127,-1.1267,-1.1247,-1.1214,-1.121,-1.1207,-1.1176,-1.1169,-1.1162,0,0,0,0,0,0,-1.1268,-1.1276,-1.1287,-1.1259,-1.1257,-1.1261,-1.1245,-1.1258,-1.125,-1.1253,-1.1267,-1.1267,-1.1242,-1.1242,-1.126,-1.1214,-1.1237,-1.1233,-1.1214,-1.1207,-1.1202,-1.1201,-1.1287,0,0,0,0,0,-1.1258,-1.1246,-1.1253,-1.1227,-1.1226,-1.1236,-1.1229,-1.1239,-1.1237,-1.1235,-1.1238,-1.1235,-1.1224,-1.1216,-1.1206,-1.1175,-1.1174,-1.1159,-1.1153,-1.1149,-1.1145,-1.1128,-1.1121,-1.1196,-1.1196,-1.1196,0,0,-1.1235,-1.1238,-1.1229,-1.122,-1.122,-1.1206,-1.1234,-1.1219,-1.1209,-1.1233,-1.1211,-1.1213,-1.1211,-1.1183,-1.1172,-1.1183,-1.1124,-1.1145,-1.1141,-1.114,-1.1124,-1.1117,-1.111,-1.1194,-1.1194,-1.1195,0,0,-1.1186,-1.1187,-1.1166,-1.1166,-1.1165,-1.1172,-1.1167,-1.117,-1.1172,-1.1151,-1.1169,-1.1157,-1.1138,-1.1136,-1.1132,-1.1084,-1.1097,-1.1081,-1.1051,-1.1034,-1.1028,-1.1023,-1.1005,-1.0999,-1.1077,-1.1077,-1.1077,0,-1.1157,-1.1138,-1.1154,-1.1137,-1.1133,-1.1156,-1.1134,-1.1133,-1.1128,-1.1124,-1.1138,-1.1115,-1.1115,-1.1087,-1.1076,-1.1072,-1.1066,-1.108,-1.1028,-1.1023,-1.1018,-1.1001,-1.0995,-1.1075,-1.1075,-1.1075,-1.1075,0,-1.1103,-1.109,-1.1073,-1.1069,-1.1063,-1.1044,-1.1056,-1.1048,-1.1059,-1.1064,-1.1043,-1.1044,-1.1035,-1.103,-1.1039,-1.1003,-1.101,-1.1026,-1.1049,-1.1009,-1.0993,-1.0987,-1.1072,-1.1073,-1.1073,-1.1074,0,0,-1.1029,-1.1036,-1.1029,-1.1028,-1.103,-1.1019,-1.1002,-1.0994,-1.0987,-1.0984,-1.0969,-1.0953,-1.0968,-1.0963,-1.0973,-1.0959,-1.092,-1.0976,-1.0976,-1.0965,-1.088,-1.0867,-1.0859,-1.093,-1.0929,-1.0928,-1.088,0,-1.0981,-1.0951,-1.0965,-1.0934,-1.0922,-1.0944,-1.0929,-1.0928,-1.0934,-1.0924,-1.0929,-1.0917,-1.0938,-1.0936,-1.0923,-1.0928,-1.0903,-1.0932,-1.0915,-1.0914,-1.0913,-1.0851,-1.0837,-1.0791,-1.0874,-1.0873,-1.0872,0,-1.0919,-1.0915,-1.0882,-1.0887,-1.0883,-1.0869,-1.0863,-1.0853,-1.0853,-1.0858,-1.0854,-1.0868,-1.0851,-1.0875,-1.0851,-1.0871,-1.0865,-1.0867,-1.0865,-1.0862,-1.0889,-1.0844,-1.0776,-1.0769,-1.0862,-1.0863,-1.0864,0,-1.0867,-1.0853,-1.0832,-1.0831,-1.0836,-1.0826,-1.0827,-1.0829,-1.0823,-1.0818,-1.0815,-1.0808,-1.0803,-1.0797,-1.0809,-1.0826,-1.0783,-1.0809,-1.0785,-1.0785,-1.0773,-1.0773,-1.0701,-1.0773,-1.0773,-1.0773,-1.0773,0,-1.081,-1.0789,-1.0809,-1.0795,-1.0773,-1.079,-1.0766,-1.0771,-1.0772,-1.0759,-1.0779,-1.0767,-1.0784,-1.0773,-1.0782,-1.076,-1.0759,-1.0761,-1.0764,-1.0758,-1.0758,-1.0753,-1.0756,-1.0771,-1.0772,-1.0772,-1.0772,0,-1.0747,-1.076,-1.0738,-1.0746,-1.0747,-1.073,-1.0736,-1.0724,-1.0732,-1.0716,-1.0713,-1.0724,-1.0713,-1.0725,-1.0714,-1.072,-1.069,-1.0698,-1.069,-1.0692,-1.0667,-1.0669,-1.0588,-1.0578,-1.0658,-1.0657,-1.0656,0,-1.0709,-1.0693,-1.07,-1.0694,-1.0694,-1.0684,-1.0679,-1.0695,-1.0689,-1.0689,-1.0677,-1.0667,-1.066,-1.0641,-1.0648,-1.064,-1.0647,-1.0619,-1.0646,-1.0641,-1.0645,-1.0645,-1.0643,-1.0613,-1.0612,-1.0611,-1.0611,0,-1.0639,-1.0647,-1.0639,-1.0634,-1.0628,-1.0624,-1.0622,-1.0616,-1.0633,-1.0625,-1.0615,-1.061,-1.06,-1.059,-1.0584,-1.0585,-1.06,-1.0603,-1.0597,-1.059,-1.0586,-1.0586,-1.0674,-1.0604,-1.0605,-1.0605,-1.0606,-1.0606,-1.0586,-1.0573,-1.0576,-1.0567,-1.0568,-1.0566,-1.0555,-1.0562,-1.0554,-1.0547,-1.0558,-1.0544,-1.0546,-1.054,-1.0539,-1.0529,-1.054,-1.0532,-1.0529,-1.0526,-1.0522,-1.0589,-1.0528,-1.0528,-1.0528,-1.0529,-1.0529,0,-1.0516,-1.052,-1.0512,-1.0509,-1.0502,-1.0519,-1.0518,-1.0511,-1.0499,-1.0499,-1.0493,-1.0481,-1.0472,-1.0479,-1.0471,-1.0461,-1.0468,-1.0458,-1.0458,-1.0458,-1.0513,-1.0518,-1.0453,-1.0453,-1.0453,-1.0453,-1.0453,-1.0453,-1.0479,-1.0458,-1.0466,-1.0446,-1.045,-1.0437,-1.0435,-1.0434,-1.0434,-1.042,-1.0413,-1.0418,-1.0421,-1.0414,-1.0407,-1.0409,-1.0404,-1.0392,-1.0397,-1.0447,-1.0454,-1.0461,-1.0466,-1.0392,-1.0391,-1.0343,-1.0342,-1.0342]}]]